Weather History for Easton, MD

Change the Weather History Date:

Friday, August 22, 2014

  Actual Average Record
Temperature  
Mean Temperature 78 °F -  
Max Temperature 84 °F 85 °F 95 °F (1959)
Min Temperature 71 °F 64 °F 51 °F (1949)
Cooling Degree Days 12    
Growing Degree Days 28 (Base 50)    
Moisture  
Dew Point 74 °F    
Average Humidity 95    
Maximum Humidity 100    
Minimum Humidity 70    
Precipitation  
Precipitation 0.00 in - - ()
Sea Level Pressure  
Sea Level Pressure 30.00 in    
Wind  
Wind Speed 1 mph (NE)    
Max Wind Speed 9 mph    
Max Gust Speed -    
Visibility 7 miles    
Events Fog , Rain    
Averages and records for this station are not official NWS values.
T = Trace of Precipitation, MM = Missing Value Source: NWS Daily Summary

Daily Weather History Graph

Daily Weather History Graph

Search for Another Location

Airport:

Trip Planner

Search our weather history database for the weather conditions in past years. The results will help you decide how hot, cold, wet, or windy it might be!

Date:

Astronomy

Aug. 22, 2014 Rise Set
Actual Time 6:24 AM EDT 7:49 PM EDT
Civil Twilight 5:56 AM EDT 8:17 PM EDT
Nautical Twilight 5:22 AM EDT 8:50 PM EDT
Astronomical Twilight 4:47 AM EDT 9:25 PM EDT
Moon 3:45 AM EDT (8/22) 5:55 PM EDT (8/22)
Length of Visible Light 14h 20m
Length of Day
13h 24m
Waning Crescent, 8% of the Moon is Illuminated
Aug 22
Waning Crescent
Aug 25
New
Sep 2
First Quarter
Sep 8
Full
Sep 15
Last Quarter

Hourly Weather History & Observations

Time (EDT) Temp. Heat Index Dew Point Humidity Pressure Visibility Wind Dir Wind Speed Gust Speed Precip Events Conditions
12:10 AM 78.8 °F - 78.8 °F 100% 30.02 in 10.0 mi Calm Calm - N/A   Mostly Cloudy
12:30 AM 77.9 °F - 77.9 °F 100% 30.01 in 10.0 mi Calm Calm - N/A   Mostly Cloudy
12:50 AM 77.4 °F - 77.4 °F 100% 30.01 in 7.0 mi Calm Calm - N/A Rain Light Rain
1:10 AM 77.0 °F - 77.0 °F 100% 30.01 in 10.0 mi Calm Calm - N/A   Mostly Cloudy
1:30 AM 77.0 °F - 77.0 °F 100% 30.00 in 10.0 mi Calm Calm - N/A   Overcast
1:50 AM 76.3 °F - 76.3 °F 100% 30.01 in 5.0 mi SW 5.8 mph - N/A Rain Light Rain
2:10 AM 75.2 °F - 75.2 °F 100% 30.00 in 10.0 mi Calm Calm - N/A Rain Light Rain
2:30 AM 74.7 °F - 74.7 °F 100% 29.99 in 7.0 mi Calm Calm - N/A   Scattered Clouds
2:50 AM 75.2 °F - 75.2 °F 100% 29.99 in 7.0 mi Calm Calm - N/A   Clear
3:10 AM 73.8 °F - 73.8 °F 100% 29.99 in 5.0 mi Calm Calm - N/A   Scattered Clouds
3:30 AM 73.6 °F - 73.6 °F 100% 29.99 in 5.0 mi Calm Calm - N/A   Scattered Clouds
3:50 AM 73.9 °F - 73.9 °F 100% 29.99 in 7.0 mi Calm Calm - N/A   Scattered Clouds
4:10 AM 73.4 °F - 73.4 °F 100% 29.99 in 5.0 mi Calm Calm - N/A   Scattered Clouds
4:30 AM 73.4 °F - 73.4 °F 100% 29.98 in 2.5 mi Calm Calm - N/A   Scattered Clouds
4:50 AM 73.6 °F - 73.6 °F 100% 29.98 in 1.8 mi Calm Calm - N/A   Mist
5:10 AM 73.0 °F - 73.0 °F 100% 29.98 in 0.5 mi Calm Calm - N/A Fog Fog
5:30 AM 72.7 °F - 72.7 °F 100% 29.98 in 0.5 mi Calm Calm - N/A Fog Fog
5:50 AM 72.1 °F - 72.1 °F 100% 29.98 in 0.8 mi Calm Calm - N/A   Mist
5:55 AM 71.6 °F - 71.6 °F 100% 29.98 in 5.0 mi North 3.5 mph - N/A   Scattered Clouds
6:10 AM 72.5 °F - 72.5 °F 100% 29.98 in 7.0 mi Calm Calm - N/A   Clear
6:26 AM 72.5 °F - 72.5 °F 100% 29.98 in 7.0 mi Calm Calm - N/A   Clear
6:55 AM 73.4 °F - 73.4 °F 100% 29.99 in 2.5 mi Calm Calm - N/A   Scattered Clouds
7:12 AM 73.4 °F - 73.4 °F 100% 30.00 in 1.0 mi Calm Calm - N/A   Overcast
7:50 AM 73.4 °F - 73.4 °F 100% 30.01 in 3.0 mi Calm Calm - N/A   Overcast
9:50 AM 77.0 °F - 77.0 °F 100% 30.03 in 7.0 mi Calm Calm - N/A   Mostly Cloudy
10:25 AM 78.8 °F - 77.0 °F 94% 30.02 in 7.0 mi Calm Calm - N/A   Mostly Cloudy
10:50 AM 78.8 °F - 77.0 °F 94% 30.02 in 7.0 mi ENE 4.6 mph - N/A   Mostly Cloudy
12:53 PM 82.4 °F 88.2 °F 73.4 °F 74% 30.01 in 10.0 mi ENE 9.2 mph - N/A   Mostly Cloudy
1:50 PM 84.2 °F 90.9 °F 73.4 °F 70% 30.00 in 10.0 mi NNE 9.2 mph - N/A   Mostly Cloudy
2:50 PM 82.4 °F 88.2 °F 73.4 °F 74% 30.00 in 10.0 mi NNE 9.2 mph - N/A   Mostly Cloudy
3:50 PM 82.4 °F 88.2 °F 73.4 °F 74% 29.99 in 10.0 mi North 9.2 mph - N/A   Mostly Cloudy
4:50 PM 77.0 °F - 75.2 °F 94% 29.99 in 10.0 mi Calm Calm - N/A   Mostly Cloudy
5:50 PM 77.0 °F - 71.6 °F 83% 30.00 in 10.0 mi Calm Calm - N/A   Mostly Cloudy
6:50 PM 75.2 °F - 71.6 °F 89% 30.01 in 10.0 mi Calm Calm - N/A   Overcast
7:50 PM 75.2 °F - 71.6 °F 89% 30.01 in 10.0 mi Calm Calm - N/A   Mostly Cloudy
10:52 PM 73.4 °F - 71.6 °F 94% 30.04 in 10.0 mi Calm Calm - N/A   Overcast
11:12 PM 72.5 °F - 71.2 °F 96% 30.04 in 10.0 mi Calm Calm - N/A   Overcast
11:32 PM 71.8 °F - 71.6 °F 99% 30.05 in 10.0 mi East 3.5 mph - N/A   Mostly Cloudy
11:52 PM 71.6 °F - 70.7 °F 97% 30.05 in 10.0 mi Calm Calm - N/A   Scattered Clouds